Regional Weather Roundup
Issued by NWS New Orleans/Baton Rouge, LA

Home | Current Version | Previous Version | Graphics & Text | Print | Product List | Glossary On
Versions: 1 2 3 4 5 6 7 8 9 10 11 12 13 14 15 16 17 18 19 20 21 22 23 24 25 26 27 28 29 30 31 32 33 34 35 36 37 38 39 40 41 42 43 44 45 46 47 48 49 50
058
ASUS44 KLIX 301205
RWRLIX
NEW ORLEANS REGIONAL WEATHER ROUNDUP
NATIONAL WEATHER SERVICE NEW ORLEANS LA
700 AM CDT SAT AUG 30 2014

NOTE: "FAIR" INDICATES FEW OR NO CLOUDS BELOW 12,000 FEET WITH NO
      SIGNIFICANT WEATHER AND/OR OBSTRUCTIONS TO VISIBILITY.
      SKY/WX - SKY CONDITION AND SIGNIFICANT WEATHER.
      TMP - AIR TEMPERATURE.     DP    - DEWPOINT TEMPERATURE.
      RH  - RELATIVE HUMIDITY.   PRES  - PRESSURE.
      HI  - HEAT INDEX.          WCI   - WIND CHILL INDEX.

*  THESE STATIONS ARE NOT NWS OR FAA STATIONS AND ARE NOT UNDER
   NWS QUALITY CONTROL.

LAZ038-040-048-061>063-065>067-069-301300-
SOUTHEAST LOUISIANA

CITY           SKY/WX    TMP DP  RH WIND       PRES   REMARKS
N.O. AUDUBON     N/A     81  78  92 MISG        N/A
6HR MIN TEMP:  79; 6HR MAX TEMP:  81;

N.O. INTL ARPT MOCLDY    80  76  87 SE8       29.98S
6HR MIN TEMP:  78; 6HR MAX TEMP:  80; 6HR PCP: TRACE;

N.O. LAKEFRONT MOCLDY    79  76  90 SE12      30.00R
6HR MIN TEMP:  79; 6HR MAX TEMP:  80;

N.O. DOWNTOWN*   N/A     81  73  78 SE3       30.00S
6HR MIN TEMP:  79; 6HR MAX TEMP:  81;

SLIDELL        MOCLDY    78  75  90 E3        29.99F
6HR MIN TEMP:  76; 6HR MAX TEMP:  78;

BATON ROUGE    PTCLDY    76  74  93 E5        29.98R
6HR MIN TEMP:  75; 6HR MAX TEMP:  76; 6HR PCP:  0.02;

BOOTHVILLE     PTCLDY    81  78  91 E5        30.01S
6HR MIN TEMP:  78; 6HR MAX TEMP:  81;

BELLE CHASSE   MOCLDY    80  75  84 SE5       29.98S
6HR MIN TEMP:  79; 6HR MAX TEMP:  80;

BOGALUSA*        N/A     76  73  88 CALM      30.03S
6HR MIN TEMP:  75; 6HR MAX TEMP:  78;

GALLIANO*      NOT AVBL
NEW ROADS*     PTSUNNY   76  75  97 E6        29.97R
6HR MIN TEMP:  74; 6HR MAX TEMP:  76;

GONZALES*        N/A     76  76 100 CALM      29.97R
6HR MIN TEMP:  75; 6HR MAX TEMP:  76; 6HR PCP:  0.01;

HAMMOND*       CLOUDY    77  73  88 CALM      30.01S
HOUMA*         PTCLDY    79  73  83 SE5       29.97S
PORT FOURCHON* PTSUNNY   84  77  79 SE13G18   30.00R

$$

MSZ070-080>082-301300-
SOUTHERN MISSISSIPPI

CITY           SKY/WX    TMP DP  RH WIND       PRES   REMARKS
MCCOMB         CLOUDY    75  74  96 SE6       30.01S
6HR MIN TEMP:  75; 6HR MAX TEMP:  75;

GULFPORT       CLEAR     82  74  76 SE5       30.02R
6HR MIN TEMP:  81; 6HR MAX TEMP:  82;

BILOXI         PTCLDY    83  74  74 S7        30.03R
6HR MIN TEMP:  82; 6HR MAX TEMP:  83;

PASCAGOULA     MOCLDY    75  75 100 CALM      30.04R
6HR MIN TEMP:  75; 6HR MAX TEMP:  78;

STENNIS ARPT*  LGT RAIN N/A N/A N/A CALM      30.02

$$

COASTAL OBSERVATIONS
LAKE AND NEARSHORE STATIONS

STATION/POSITION TIME  TEMP    WIND        PRES    WAVE
                       AIR SEA DIR/SP/G            HT/PER
                 (UTC) (F)     (DEG/KT/KT) (MB)    (FT/S)
PASCAGOULA       1200   83     150/  5/  7 1016.6
WAVELAND YACHT   1200   83     170/  9/ 11 1015.7
GRAND ISLE       1200   83 82  160/  8/ 15 1016.0
SOUTHWEST PASS   1200   84 88  140/  9/ 15 1016.0
NEW CANAL        1200   80 82  140/  3/  6 1015.9
SHELL BEACH      1200   80 81  130/  9/ 11 1015.6

OFFSHORE STATIONS

STATION/POSITION TIME  TEMP    WIND        PRES    WAVE
                       AIR SEA DIR/SP/G            HT/PER
                 (UTC) (F)     (DEG/KT/KT) (MB)    (FT/S)
64 S DAUPHIN ISL 1200   83     130/ 12       N/A

$$




USA.gov is the U.S. government's official web portal to all federal, state and local government web resources and services.